Wetterdaten: Woche 15.01.18 - 21.01.18 (KW3)
Datum Zeit Temp. A. Pool Temp. Feuchte A. Luftdruck Regen Wind Richtung Sonnenschein ET UV Solar Taupunkt Windchill Windben Empfang
15.01.2018 00:00 -1,2 C 3,3 C 90 % 1023,4 hPa 0,0 l/m 13,5 km/h (3 Bft) O-NO 0,00 h 0,000 mm 0,0 UV-I 0 W/m -2,6 C -7,4 C 19,1 km/h (3 Bft) 95,15 %
15.01.2018 01:00 -1,3 C 3,3 C 90 % 1023,4 hPa 0,0 l/m 12,2 km/h (2 Bft) O-NO 0,00 h 0,000 mm 0,0 UV-I 0 W/m -2,7 C -6,5 C 17,3 km/h (3 Bft) 99,00 %
15.01.2018 02:00 -1,4 C 3,3 C 91 % 1023,3 hPa 0,0 l/m 13,2 km/h (3 Bft) O-NO 0,00 h 0,000 mm 0,0 UV-I 0 W/m -2,7 C -7,4 C 18,3 km/h (3 Bft) 97,51 %
15.01.2018 03:00 -1,6 C 3,3 C 91 % 1023,2 hPa 0,0 l/m 9,2 km/h (2 Bft) O-NO 0,00 h 0,000 mm 0,0 UV-I 0 W/m -2,9 C -4,4 C 14,1 km/h (3 Bft) 97,84 %
15.01.2018 04:00 -1,7 C 9,3 C 92 % 1023,0 hPa 0,0 l/m 9,4 km/h (2 Bft) O-NO 0,00 h 0,000 mm 0,0 UV-I 0 W/m -2,9 C -4,7 C 13,8 km/h (3 Bft) 96,67 %
15.01.2018 05:00 -1,9 C 21,0 C 93 % 1023,0 hPa 0,0 l/m 7,3 km/h (2 Bft) O-NO 0,00 h 0,000 mm 0,0 UV-I 0 W/m -2,9 C -3,1 C 11,2 km/h (2 Bft) 98,08 %
15.01.2018 06:00 -2,0 C 12,9 C 93 % 1022,9 hPa 0,0 l/m 8,9 km/h (2 Bft) O-NO 0,00 h 0,000 mm 0,0 UV-I 0 W/m -2,9 C -4,6 C 13,1 km/h (3 Bft) 97,83 %
15.01.2018 07:00 -2,2 C 3,3 C 93 % 1022,9 hPa 0,0 l/m 6,9 km/h (2 Bft) O-NO 0,00 h 0,000 mm 0,0 UV-I 6 W/m -3,1 C -3,0 C 10,4 km/h (2 Bft) 97,34 %
15.01.2018 08:00 -2,2 C 3,3 C 93 % 1022,9 hPa 0,0 l/m 7,1 km/h (2 Bft) O-NO 0,10 h 0,000 mm 0,0 UV-I 21 W/m -3,2 C -3,3 C 10,1 km/h (2 Bft) 98,02 %
15.01.2018 09:00 -2,2 C 3,3 C 92 % 1022,9 hPa 0,0 l/m 8,1 km/h (2 Bft) O-NO 0,00 h 0,000 mm 0,0 UV-I 47 W/m -3,4 C -4,1 C 12,2 km/h (2 Bft) 98,97 %
15.01.2018 10:00 -2,0 C 3,3 C 91 % 1022,9 hPa 0,0 l/m 10,0 km/h (2 Bft) O-NO 0,00 h 0,025 mm 0,0 UV-I 81 W/m -3,3 C -5,6 C 14,6 km/h (3 Bft) 97,49 %
15.01.2018 11:00 -1,8 C 3,3 C 90 % 1022,4 hPa 0,0 l/m 7,5 km/h (2 Bft) O-NO 0,00 h 0,026 mm 0,0 UV-I 75 W/m -3,2 C -3,1 C 11,1 km/h (2 Bft) 96,58 %
15.01.2018 12:00 -1,5 C 3,3 C 89 % 1021,3 hPa 0,0 l/m 8,4 km/h (2 Bft) O-NO 0,00 h 0,025 mm 0,0 UV-I 130 W/m -3,0 C -3,6 C 12,5 km/h (3 Bft) 98,11 %
15.01.2018 13:00 -1,2 C 3,3 C 89 % 1020,2 hPa 0,0 l/m 8,5 km/h (2 Bft) O-NO 0,00 h 0,051 mm 0,0 UV-I 144 W/m -2,8 C -3,3 C 12,4 km/h (3 Bft) 98,47 %
15.01.2018 14:00 -1,0 C 3,3 C 88 % 1019,2 hPa 0,0 l/m 8,8 km/h (2 Bft) O-NO 0,00 h 0,051 mm 0,0 UV-I 112 W/m -2,7 C -3,4 C 13,4 km/h (3 Bft) 97,83 %
15.01.2018 15:00 -1,1 C 3,3 C 88 % 1018,5 hPa 0,0 l/m 9,6 km/h (2 Bft) O-NO 0,10 h 0,051 mm 0,0 UV-I 58 W/m -2,8 C -4,2 C 14,1 km/h (3 Bft) 96,91 %
15.01.2018 16:00 -1,2 C 3,3 C 89 % 1017,7 hPa 0,0 l/m 10,9 km/h (2 Bft) O-NO 0,43 h 0,025 mm 0,0 UV-I 24 W/m -2,8 C -5,5 C 15,9 km/h (3 Bft) 97,41 %
15.01.2018 17:00 -1,7 C 3,3 C 91 % 1016,6 hPa 0,0 l/m 8,3 km/h (2 Bft) O-NO 0,00 h 0,025 mm 0,0 UV-I 0 W/m -3,0 C -3,7 C 12,7 km/h (3 Bft) 98,27 %
15.01.2018 18:00 -2,1 C 3,3 C 92 % 1015,4 hPa 0,0 l/m 7,5 km/h (2 Bft) O-NO 0,00 h 0,000 mm 0,0 UV-I 0 W/m -3,2 C -3,6 C 11,3 km/h (2 Bft) 98,54 %
15.01.2018 19:00 -2,2 C 3,3 C 93 % 1014,3 hPa 0,0 l/m 8,9 km/h (2 Bft) O-NO 0,00 h 0,000 mm 0,0 UV-I 0 W/m -3,3 C -4,8 C 13,7 km/h (3 Bft) 96,06 %
15.01.2018 20:00 -2,3 C 3,3 C 93 % 1013,2 hPa 0,0 l/m 8,9 km/h (2 Bft) O-NO 0,00 h 0,000 mm 0,0 UV-I 0 W/m -3,3 C -5,0 C 13,5 km/h (3 Bft) 98,43 %
15.01.2018 21:00 -2,4 C 3,3 C 93 % 1012,3 hPa 0,0 l/m 9,4 km/h (2 Bft) O-NO 0,00 h 0,000 mm 0,0 UV-I 0 W/m -3,3 C -5,5 C 14,2 km/h (3 Bft) 98,22 %
15.01.2018 22:00 -2,4 C 3,3 C 93 % 1010,7 hPa 0,0 l/m 13,0 km/h (3 Bft) O-NO 0,00 h 0,000 mm 0,0 UV-I 0 W/m -3,4 C -8,4 C 18,7 km/h (3 Bft) 98,69 %
15.01.2018 23:00 -2,3 C 3,3 C 93 % 1009,0 hPa 0,0 l/m 15,6 km/h (3 Bft) O-NO 0,00 h 0,000 mm 0,0 UV-I 0 W/m -3,3 C -10,1 C 21,3 km/h (4 Bft) 96,07 %
16.01.2018 00:00 -2,2 C 3,3 C 92 % 1008,3 hPa 0,0 l/m 8,1 km/h (2 Bft) NO 0,00 h 0,000 mm 0,0 UV-I 0 W/m -3,2 C -4,3 C 12,0 km/h (2 Bft) 98,32 %
16.01.2018 01:00 -2,1 C 3,3 C 92 % 1008,2 hPa 0,0 l/m 2,2 km/h (1 Bft) W-SW 0,00 h 0,000 mm 0,0 UV-I 0 W/m -3,3 C -2,1 C 4,3 km/h (1 Bft) 98,21 %
16.01.2018 02:00 -2,1 C 3,3 C 92 % 1007,6 hPa 0,0 l/m 2,7 km/h (1 Bft) O-NO 0,00 h 0,000 mm 0,0 UV-I 0 W/m -3,2 C -2,1 C 4,7 km/h (1 Bft) 98,94 %
16.01.2018 03:00 -2,0 C 3,3 C 93 % 1006,9 hPa 0,0 l/m 5,4 km/h (1 Bft) O-NO 0,00 h 0,000 mm 0,0 UV-I 0 W/m -3,0 C -3,1 C 8,7 km/h (2 Bft) 95,97 %
16.01.2018 04:00 -2,1 C 3,3 C 93 % 1006,0 hPa 0,0 l/m 9,2 km/h (2 Bft) O-NO 0,00 h 0,000 mm 0,0 UV-I 0 W/m -3,0 C -5,1 C 13,4 km/h (3 Bft) 99,37 %
16.01.2018 05:00 -2,2 C 3,3 C 95 % 1005,1 hPa 0,0 l/m 5,8 km/h (2 Bft) O 0,00 h 0,000 mm 0,0 UV-I 0 W/m -2,9 C -3,0 C 10,1 km/h (2 Bft) 97,78 %
16.01.2018 06:00 -1,9 C 3,3 C 95 % 1004,1 hPa 0,0 l/m 6,1 km/h (2 Bft) O-NO 0,00 h 0,000 mm 0,0 UV-I 0 W/m -2,6 C -3,0 C 10,6 km/h (2 Bft) 98,51 %
16.01.2018 07:00 -1,9 C 3,3 C 95 % 1003,9 hPa 0,0 l/m 8,2 km/h (2 Bft) O-NO 0,00 h 0,000 mm 0,0 UV-I 5 W/m -2,6 C -3,9 C 13,1 km/h (3 Bft) 96,34 %
16.01.2018 08:00 -1,8 C 3,3 C 95 % 1003,1 hPa 0,0 l/m 8,4 km/h (2 Bft) O 0,20 h 0,000 mm 0,0 UV-I 28 W/m -2,5 C -4,1 C 13,4 km/h (3 Bft) 99,42 %
16.01.2018 09:00 -1,5 C 3,3 C 95 % 1002,1 hPa 0,0 l/m 9,4 km/h (2 Bft) O-NO 0,10 h 0,000 mm 0,0 UV-I 60 W/m -2,1 C -4,5 C 14,3 km/h (3 Bft) 97,91 %
16.01.2018 10:00 -1,2 C 3,3 C 96 % 1001,8 hPa 0,0 l/m 6,9 km/h (2 Bft) NO 0,00 h 0,025 mm 0,0 UV-I 44 W/m -1,8 C -2,5 C 10,8 km/h (2 Bft) 98,54 %
16.01.2018 11:00 -0,6 C 3,3 C 96 % 1001,0 hPa 0,0 l/m 3,8 km/h (1 Bft) O 0,00 h 0,026 mm 0,0 UV-I 79 W/m -1,1 C -0,7 C 6,9 km/h (2 Bft) 95,39 %
16.01.2018 12:00 0,0 C 3,3 C 96 % 1000,2 hPa 0,0 l/m 2,6 km/h (1 Bft) O-NO 0,03 h 0,025 mm 0,4 UV-I 96 W/m -0,5 C -0,1 C 4,9 km/h (1 Bft) 99,63 %
16.01.2018 13:00 0,4 C 3,3 C 97 % 999,5 hPa 1,2 l/m 2,8 km/h (1 Bft) SO 0,03 h 0,026 mm 0,4 UV-I 84 W/m -0,0 C 0,3 C 6,1 km/h (2 Bft) 98,36 %
16.01.2018 14:00 1,2 C 3,3 C 97 % 998,7 hPa 0,4 l/m 6,5 km/h (2 Bft) SO 0,00 h 0,025 mm 0,0 UV-I 44 W/m 0,7 C 0,2 C 10,7 km/h (2 Bft) 99,26 %
16.01.2018 15:00 4,9 C 3,3 C 92 % 998,3 hPa 3,0 l/m 15,5 km/h (3 Bft) W-SW 0,00 h 0,025 mm 0,0 UV-I 13 W/m 3,7 C -1,0 C 23,5 km/h (4 Bft) 97,95 %
16.01.2018 16:00 3,7 C 3,3 C 96 % 998,8 hPa 5,0 l/m 8,4 km/h (2 Bft) W-SW 0,00 h 0,026 mm 0,0 UV-I 7 W/m 3,2 C 1,0 C 15,0 km/h (3 Bft) 96,99 %
16.01.2018 17:00 3,2 C 3,3 C 94 % 999,8 hPa 1,2 l/m 17,2 km/h (3 Bft) S-SW 0,00 h 0,000 mm 0,0 UV-I 0 W/m 2,3 C -4,2 C 26,7 km/h (4 Bft) 96,21 %
16.01.2018 18:00 3,8 C 3,3 C 90 % 1000,3 hPa 0,0 l/m 18,6 km/h (3 Bft) SW 0,00 h 0,000 mm 0,0 UV-I 0 W/m 2,3 C -4,2 C 28,0 km/h (4 Bft) 98,96 %
16.01.2018 19:00 4,4 C 3,3 C 87 % 1000,2 hPa 0,0 l/m 15,6 km/h (3 Bft) SW 0,00 h 0,025 mm 0,0 UV-I 0 W/m 2,4 C -1,9 C 24,1 km/h (4 Bft) 98,62 %
16.01.2018 20:00 4,4 C 3,3 C 85 % 999,9 hPa 0,0 l/m 14,7 km/h (3 Bft) SW 0,00 h 0,026 mm 0,0 UV-I 0 W/m 2,2 C -1,3 C 22,9 km/h (4 Bft) 98,48 %
16.01.2018 21:00 4,4 C 3,3 C 84 % 999,8 hPa 0,0 l/m 16,0 km/h (3 Bft) SW 0,00 h 0,025 mm 0,0 UV-I 0 W/m 2,0 C -2,1 C 24,4 km/h (4 Bft) 99,47 %
16.01.2018 22:00 4,5 C 3,3 C 81 % 999,2 hPa 0,0 l/m 14,0 km/h (3 Bft) SW 0,00 h 0,025 mm 0,0 UV-I 0 W/m 1,5 C -0,9 C 23,2 km/h (4 Bft) 98,24 %
16.01.2018 23:00 3,7 C 3,3 C 84 % 998,9 hPa 0,4 l/m 15,8 km/h (3 Bft) W-SW 0,00 h 0,025 mm 0,0 UV-I 0 W/m 1,2 C -2,9 C 25,5 km/h (4 Bft) 98,54 %
17.01.2018 00:00 1,8 C 3,3 C 94 % 1000,0 hPa 1,8 l/m 13,0 km/h (3 Bft) W-SW 0,00 h 0,025 mm 0,0 UV-I 0 W/m 0,9 C -3,4 C 22,8 km/h (4 Bft) 98,76 %
17.01.2018 01:00 0,8 C 3,3 C 96 % 999,3 hPa 0,2 l/m 10,6 km/h (2 Bft) S-SW 0,00 h 0,000 mm 0,0 UV-I 0 W/m 0,3 C -3,0 C 18,6 km/h (3 Bft) 97,44 %
17.01.2018 02:00 0,9 C 3,3 C 96 % 998,8 hPa 1,2 l/m 10,5 km/h (2 Bft) SW 0,00 h 0,000 mm 0,0 UV-I 0 W/m 0,4 C -2,8 C 18,9 km/h (3 Bft) 98,76 %
17.01.2018 03:00 1,1 C 3,3 C 96 % 997,9 hPa 1,2 l/m 5,4 km/h (1 Bft) S-SO 0,00 h 0,000 mm 0,0 UV-I 0 W/m 0,5 C 0,3 C 12,1 km/h (2 Bft) 98,03 %
17.01.2018 04:00 1,5 C 3,3 C 96 % 997,6 hPa 1,0 l/m 9,4 km/h (2 Bft) S-SW 0,00 h 0,000 mm 0,0 UV-I 0 W/m 0,9 C -1,2 C 15,2 km/h (3 Bft) 95,40 %
17.01.2018 05:00 1,5 C 3,3 C 95 % 997,3 hPa 0,6 l/m 11,2 km/h (2 Bft) S-SW 0,00 h 0,000 mm 0,0 UV-I 0 W/m 0,8 C -2,7 C 18,2 km/h (3 Bft) 99,07 %
17.01.2018 06:00 1,6 C 3,3 C 96 % 996,9 hPa 1,0 l/m 10,8 km/h (2 Bft) S-SW 0,00 h 0,000 mm 0,0 UV-I 0 W/m 1,0 C -2,1 C 16,6 km/h (3 Bft) 96,70 %
17.01.2018 07:00 2,0 C 3,3 C 96 % 996,9 hPa 1,2 l/m 10,2 km/h (2 Bft) W 0,00 h 0,000 mm 0,0 UV-I 0 W/m 1,4 C -1,3 C 16,1 km/h (3 Bft) 97,53 %
17.01.2018 08:00 1,2 C 3,3 C 96 % 997,7 hPa 2,2 l/m 15,1 km/h (3 Bft) W-SW 0,00 h 0,000 mm 0,0 UV-I 12 W/m 0,6 C -5,5 C 22,9 km/h (4 Bft) 98,56 %
17.01.2018 09:00 2,1 C 3,3 C 94 % 997,7 hPa 2,6 l/m 19,2 km/h (3 Bft) SW 0,30 h 0,000 mm 0,0 UV-I 95 W/m 1,1 C -6,2 C 28,8 km/h (4 Bft) 98,36 %
17.01.2018 10:00 1,4 C 3,3 C 94 % 999,8 hPa 1,6 l/m 24,2 km/h (4 Bft) W-SW 0,00 h 0,026 mm 0,0 UV-I 32 W/m 0,5 C -9,4 C 37,9 km/h (5 Bft) 98,32 %
17.01.2018 11:00 1,8 C 3,3 C 91 % 1001,2 hPa 0,8 l/m 21,9 km/h (4 Bft) W-SW 0,00 h 0,025 mm 0,0 UV-I 67 W/m 0,5 C -7,9 C 35,7 km/h (5 Bft) 95,65 %
17.01.2018 12:00 2,4 C 3,3 C 86 % 1001,8 hPa 0,4 l/m 21,1 km/h (4 Bft) W-SW 0,20 h 0,051 mm 0,4 UV-I 120 W/m 0,3 C -6,8 C 32,5 km/h (5 Bft) 98,88 %
17.01.2018 13:00 1,5 C 3,3 C 90 % 1002,4 hPa 0,4 l/m 20,7 km/h (4 Bft) W-SW 0,13 h 0,076 mm 0,0 UV-I 123 W/m -0,1 C -7,8 C 32,3 km/h (5 Bft) 97,60 %
17.01.2018 14:00 1,1 C 3,3 C 91 % 1003,2 hPa 0,2 l/m 19,5 km/h (3 Bft) W 0,03 h 0,051 mm 0,0 UV-I 89 W/m -0,1 C -7,8 C 30,3 km/h (5 Bft) 98,94 %
17.01.2018 15:00 1,5 C 3,3 C 85 % 1003,9 hPa 0,0 l/m 19,5 km/h (3 Bft) W-SW 0,07 h 0,051 mm 0,0 UV-I 42 W/m -0,7 C -7,5 C 30,8 km/h (5 Bft) 96,21 %
17.01.2018 16:00 1,2 C 3,3 C 84 % 1005,0 hPa 0,2 l/m 22,1 km/h (4 Bft) W-SW 0,17 h 0,025 mm 0,0 UV-I 21 W/m -1,2 C -8,6 C 36,1 km/h (5 Bft) 97,53 %
17.01.2018 17:00 -0,0 C 3,3 C 93 % 1006,2 hPa 0,0 l/m 18,1 km/h (3 Bft) W-SW 0,00 h 0,026 mm 0,0 UV-I 0 W/m -1,0 C -8,6 C 28,6 km/h (4 Bft) 97,82 %
17.01.2018 18:00 0,7 C 3,3 C 86 % 1006,4 hPa 0,0 l/m 20,0 km/h (4 Bft) W-SW 0,00 h 0,000 mm 0,0 UV-I 0 W/m -1,4 C -8,5 C 30,6 km/h (5 Bft) 99,00 %
17.01.2018 19:00 0,5 C 3,3 C 89 % 1006,6 hPa 0,0 l/m 18,5 km/h (3 Bft) W-SW 0,00 h 0,025 mm 0,0 UV-I 0 W/m -1,0 C -8,2 C 28,9 km/h (5 Bft) 98,10 %
17.01.2018 20:00 1,5 C 3,3 C 83 % 1007,4 hPa 0,0 l/m 25,5 km/h (4 Bft) W-SW 0,00 h 0,025 mm 0,0 UV-I 0 W/m -1,0 C -9,8 C 41,8 km/h (6 Bft) 96,91 %
17.01.2018 21:00 1,6 C 3,3 C 84 % 1008,2 hPa 0,0 l/m 27,9 km/h (4 Bft) W-SW 0,00 h 0,026 mm 0,0 UV-I 0 W/m -0,9 C -10,5 C 43,9 km/h (6 Bft) 97,39 %
17.01.2018 22:00 1,9 C 3,3 C 80 % 1008,9 hPa 0,0 l/m 25,2 km/h (4 Bft) W 0,00 h 0,025 mm 0,0 UV-I 0 W/m -1,2 C -9,1 C 40,3 km/h (6 Bft) 98,11 %
17.01.2018 23:00 1,8 C 3,3 C 80 % 1010,1 hPa 0,0 l/m 25,7 km/h (4 Bft) W-SW 0,00 h 0,051 mm 0,0 UV-I 0 W/m -1,3 C -9,4 C 40,8 km/h (6 Bft) 99,21 %
18.01.2018 00:00 1,7 C 3,3 C 82 % 1010,9 hPa 0,0 l/m 25,2 km/h (4 Bft) W-SW 0,00 h 0,000 mm 0,0 UV-I 0 W/m -1,1 C -9,4 C 40,2 km/h (6 Bft) 98,13 %
18.01.2018 01:00 2,1 C 3,3 C 80 % 1011,3 hPa 0,0 l/m 23,9 km/h (4 Bft) W-SW 0,00 h 0,025 mm 0,0 UV-I 0 W/m -1,1 C -8,5 C 37,9 km/h (5 Bft) 97,72 %
18.01.2018 02:00 1,8 C 3,3 C 80 % 1011,8 hPa 0,0 l/m 18,0 km/h (3 Bft) W-SW 0,00 h 0,051 mm 0,0 UV-I 0 W/m -1,2 C -6,3 C 27,1 km/h (4 Bft) 96,84 %
18.01.2018 03:00 1,5 C 3,3 C 85 % 1011,9 hPa 0,0 l/m 14,1 km/h (3 Bft) W-SW 0,00 h 0,026 mm 0,0 UV-I 0 W/m -0,8 C -4,7 C 21,3 km/h (4 Bft) 99,15 %
18.01.2018 04:00 1,4 C 3,3 C 87 % 1012,0 hPa 0,0 l/m 11,6 km/h (2 Bft) W-SW 0,00 h 0,025 mm 0,0 UV-I 0 W/m -0,5 C -3,0 C 17,8 km/h (3 Bft) 98,13 %
18.01.2018 05:00 0,8 C 3,3 C 93 % 1011,5 hPa 0,0 l/m 11,2 km/h (2 Bft) SW 0,00 h 0,025 mm 0,0 UV-I 0 W/m -0,1 C -3,4 C 17,4 km/h (3 Bft) 98,74 %
18.01.2018 06:00 1,0 C 3,3 C 93 % 1010,8 hPa 0,0 l/m 16,6 km/h (3 Bft) SW 0,00 h 0,000 mm 0,0 UV-I 0 W/m 0,1 C -6,5 C 25,2 km/h (4 Bft) 95,87 %
18.01.2018 07:00 1,6 C 3,3 C 90 % 1010,3 hPa 0,0 l/m 16,8 km/h (3 Bft) SW 0,00 h 0,000 mm 0,0 UV-I 8 W/m 0,2 C -5,9 C 26,3 km/h (4 Bft) 99,09 %
18.01.2018 08:00 1,8 C 3,3 C 91 % 1009,9 hPa 0,0 l/m 15,8 km/h (3 Bft) SW 0,07 h 0,026 mm 0,0 UV-I 25 W/m 0,5 C -5,1 C 24,3 km/h (4 Bft) 98,33 %
18.01.2018 09:00 2,1 C 3,3 C 91 % 1008,4 hPa 0,6 l/m 9,5 km/h (2 Bft) SW 0,00 h 0,025 mm 0,0 UV-I 62 W/m 0,7 C -0,8 C 15,7 km/h (3 Bft) 99,16 %
18.01.2018 10:00 3,7 C 3,3 C 81 % 1006,6 hPa 0,4 l/m 8,0 km/h (2 Bft) S-SW 0,00 h 0,026 mm 0,0 UV-I 75 W/m 0,7 C 1,9 C 14,0 km/h (3 Bft) 96,03 %
18.01.2018 11:00 3,8 C 3,3 C 82 % 1005,6 hPa 0,4 l/m 5,2 km/h (1 Bft) W-SW 0,00 h 0,050 mm 0,0 UV-I 58 W/m 1,1 C 2,8 C 8,9 km/h (2 Bft) 97,19 %
18.01.2018 12:00 4,4 C 3,3 C 85 % 1004,2 hPa 0,0 l/m 11,1 km/h (2 Bft) SW 0,00 h 0,026 mm 0,5 UV-I 120 W/m 2,1 C 0,8 C 17,7 km/h (3 Bft) 99,20 %
18.01.2018 13:00 5,5 C 3,3 C 83 % 1002,9 hPa 0,0 l/m 6,7 km/h (2 Bft) W-SW 0,00 h 0,051 mm 0,4 UV-I 117 W/m 2,9 C 4,5 C 10,3 km/h (2 Bft) 97,84 %
18.01.2018 14:00 7,2 C 3,3 C 77 % 1001,8 hPa 0,0 l/m 16,9 km/h (3 Bft) SW 0,13 h 0,050 mm 0,0 UV-I 115 W/m 3,3 C 1,3 C 24,7 km/h (4 Bft) 99,44 %
18.01.2018 15:00 8,2 C 3,4 C 71 % 1000,9 hPa 0,0 l/m 24,7 km/h (4 Bft) SW 0,37 h 0,077 mm 0,0 UV-I 69 W/m 3,3 C -0,5 C 35,1 km/h (5 Bft) 95,72 %
18.01.2018 16:00 8,2 C 3,5 C 71 % 1000,5 hPa 0,0 l/m 21,5 km/h (4 Bft) SW 0,17 h 0,101 mm 0,0 UV-I 20 W/m 3,2 C 0,5 C 30,1 km/h (5 Bft) 98,56 %
18.01.2018 17:00 8,9 C 3,6 C 67 % 999,9 hPa 0,2 l/m 26,3 km/h (4 Bft) SW 0,00 h 0,076 mm 0,0 UV-I 0 W/m 3,1 C 0,2 C 37,4 km/h (5 Bft) 97,39 %
18.01.2018 18:00 9,8 C 3,7 C 67 % 1000,2 hPa 0,0 l/m 27,9 km/h (4 Bft) W-SW 0,00 h 0,102 mm 0,0 UV-I 0 W/m 3,9 C 1,0 C 40,0 km/h (6 Bft) 99,14 %
18.01.2018 19:00 7,9 C 3,8 C 83 % 1001,4 hPa 0,4 l/m 19,5 km/h (3 Bft) W 0,00 h 0,102 mm 0,0 UV-I 0 W/m 5,2 C 1,0 C 28,4 km/h (4 Bft) 97,07 %
18.01.2018 20:00 6,4 C 3,9 C 90 % 1001,8 hPa 2,0 l/m 18,0 km/h (3 Bft) W 0,00 h 0,025 mm 0,0 UV-I 0 W/m 5,0 C -0,1 C 31,3 km/h (5 Bft) 97,58 %
18.01.2018 21:00 5,7 C 3,7 C 89 % 1002,4 hPa 0,8 l/m 25,6 km/h (4 Bft) W-SW 0,00 h 0,025 mm 0,0 UV-I 0 W/m 4,1 C -4,0 C 41,7 km/h (6 Bft) 97,88 %
18.01.2018 22:00 5,5 C 3,8 C 88 % 1003,6 hPa 0,4 l/m 20,8 km/h (4 Bft) W-SW 0,00 h 0,026 mm 0,0 UV-I 0 W/m 3,6 C -2,8 C 33,7 km/h (5 Bft) 99,09 %
18.01.2018 23:00 3,9 C 3,7 C 93 % 1004,3 hPa 2,2 l/m 7,1 km/h (2 Bft) W 0,00 h 0,025 mm 0,0 UV-I 0 W/m 2,9 C 2,9 C 14,6 km/h (3 Bft) 97,40 %
19.01.2018 00:00 3,4 C 3,9 C 96 % 1004,4 hPa 2,0 l/m 4,6 km/h (1 Bft) W-NW 0,00 h 0,000 mm 0,0 UV-I 0 W/m 2,7 C 2,9 C 7,9 km/h (2 Bft) 96,16 %
19.01.2018 01:00 3,3 C 3,7 C 95 % 1005,1 hPa 3,2 l/m 9,8 km/h (2 Bft) W-SW 0,00 h 0,000 mm 0,0 UV-I 0 W/m 2,7 C 0,2 C 16,4 km/h (3 Bft) 98,58 %
19.01.2018 02:00 1,8 C 3,7 C 95 % 1005,6 hPa 2,6 l/m 12,0 km/h (2 Bft) W-SW 0,00 h 0,000 mm 0,0 UV-I 0 W/m 1,0 C -2,9 C 18,6 km/h (3 Bft) 98,09 %
19.01.2018 03:00 1,7 C 3,7 C 96 % 1005,3 hPa 0,6 l/m 8,5 km/h (2 Bft) SW 0,00 h 0,000 mm 0,0 UV-I 0 W/m 1,1 C -0,4 C 12,9 km/h (3 Bft) 98,29 %
19.01.2018 04:00 2,7 C 3,6 C 94 % 1004,8 hPa 0,8 l/m 15,8 km/h (3 Bft) SW 0,00 h 0,000 mm 0,0 UV-I 0 W/m 1,9 C -4,1 C 24,5 km/h (4 Bft) 96,18 %
19.01.2018 05:00 2,3 C 3,5 C 95 % 1004,3 hPa 0,6 l/m 9,5 km/h (2 Bft) S-SW 0,00 h 0,000 mm 0,0 UV-I 0 W/m 1,5 C -0,4 C 15,3 km/h (3 Bft) 98,54 %
19.01.2018 06:00 2,8 C 3,6 C 95 % 1004,3 hPa 0,4 l/m 14,2 km/h (3 Bft) SW 0,00 h 0,000 mm 0,0 UV-I 0 W/m 2,1 C -2,5 C 22,4 km/h (4 Bft) 97,40 %
19.01.2018 07:00 3,4 C 3,6 C 93 % 1005,5 hPa 1,0 l/m 20,8 km/h (4 Bft) W-SW 0,00 h 0,000 mm 0,0 UV-I 5 W/m 2,4 C -5,5 C 32,5 km/h (5 Bft) 98,41 %
19.01.2018 08:00 2,9 C 3,5 C 94 % 1007,3 hPa 1,4 l/m 17,7 km/h (3 Bft) W-SW 0,00 h 0,025 mm 0,0 UV-I 11 W/m 2,0 C -4,8 C 27,2 km/h (4 Bft) 95,81 %
19.01.2018 09:00 2,5 C 3,3 C 94 % 1008,3 hPa 0,0 l/m 17,7 km/h (3 Bft) SW 0,00 h 0,000 mm 0,0 UV-I 32 W/m 1,6 C -5,3 C 27,9 km/h (4 Bft) 98,84 %
19.01.2018 10:00 2,9 C 3,4 C 93 % 1009,6 hPa 0,0 l/m 19,9 km/h (4 Bft) SW 0,00 h 0,026 mm 0,0 UV-I 79 W/m 1,9 C -5,8 C 29,9 km/h (5 Bft) 97,88 %
19.01.2018 11:00 3,4 C 3,5 C 91 % 1010,5 hPa 0,2 l/m 19,8 km/h (3 Bft) W-SW 0,03 h 0,051 mm 0,0 UV-I 154 W/m 2,0 C -5,2 C 31,1 km/h (5 Bft) 98,66 %
19.01.2018 12:00 4,1 C 3,6 C 83 % 1010,9 hPa 0,0 l/m 19,9 km/h (4 Bft) W-SW 0,43 h 0,076 mm 0,5 UV-I 235 W/m 1,5 C -4,1 C 29,9 km/h (5 Bft) 96,04 %
19.01.2018 13:00 4,4 C 3,8 C 78 % 1010,8 hPa 0,0 l/m 21,2 km/h (4 Bft) W-SW 0,20 h 0,127 mm 0,2 UV-I 143 W/m 0,9 C -4,4 C 32,4 km/h (5 Bft) 96,50 %
19.01.2018 14:00 3,9 C 3,9 C 78 % 1010,9 hPa 0,0 l/m 21,7 km/h (4 Bft) W-SW 0,73 h 0,101 mm 0,0 UV-I 194 W/m 0,3 C -5,3 C 31,7 km/h (5 Bft) 97,95 %
19.01.2018 15:00 3,8 C 3,9 C 79 % 1011,1 hPa 0,0 l/m 16,8 km/h (3 Bft) W-SW 0,43 h 0,102 mm 0,0 UV-I 109 W/m 0,6 C -3,2 C 25,5 km/h (4 Bft) 99,26 %
19.01.2018 16:00 3,5 C 3,9 C 78 % 1011,3 hPa 0,0 l/m 14,9 km/h (3 Bft) W-SW 0,03 h 0,076 mm 0,0 UV-I 11 W/m -0,0 C -2,5 C 22,3 km/h (4 Bft) 97,42 %
19.01.2018 17:00 2,4 C 3,9 C 83 % 1011,5 hPa 0,0 l/m 10,4 km/h (2 Bft) W-SW 0,00 h 0,026 mm 0,0 UV-I 0 W/m -0,2 C -0,9 C 15,4 km/h (3 Bft) 98,69 %
19.01.2018 18:00 1,8 C 3,9 C 85 % 1011,8 hPa 0,0 l/m 9,0 km/h (2 Bft) S-SW 0,00 h 0,025 mm 0,0 UV-I 0 W/m -0,4 C -0,6 C 13,9 km/h (3 Bft) 95,79 %
19.01.2018 19:00 2,1 C 3,9 C 87 % 1011,9 hPa 0,0 l/m 12,9 km/h (3 Bft) SW 0,00 h 0,000 mm 0,0 UV-I 0 W/m 0,1 C -3,1 C 19,0 km/h (3 Bft) 98,52 %
19.01.2018 20:00 2,2 C 3,9 C 86 % 1012,0 hPa 0,0 l/m 12,9 km/h (3 Bft) SW 0,00 h 0,025 mm 0,0 UV-I 0 W/m 0,1 C -3,0 C 20,3 km/h (4 Bft) 97,94 %
19.01.2018 21:00 1,9 C 3,9 C 87 % 1012,0 hPa 0,0 l/m 9,8 km/h (2 Bft) SW 0,00 h 0,026 mm 0,0 UV-I 0 W/m 0,0 C -1,0 C 15,0 km/h (3 Bft) 98,24 %
19.01.2018 22:00 1,8 C 3,8 C 88 % 1012,2 hPa 0,0 l/m 4,0 km/h (1 Bft) SW 0,00 h 0,000 mm 0,0 UV-I 0 W/m -0,0 C 1,4 C 6,8 km/h (2 Bft) 95,86 %
19.01.2018 23:00 0,9 C 3,9 C 92 % 1012,1 hPa 0,0 l/m 2,3 km/h (1 Bft) SW 0,00 h 0,000 mm 0,0 UV-I 0 W/m -0,3 C 0,9 C 3,6 km/h (1 Bft) 97,59 %
20.01.2018 00:00 0,8 C 3,8 C 93 % 1011,9 hPa 0,0 l/m 1,9 km/h (1 Bft) W 0,00 h 0,000 mm 0,0 UV-I 0 W/m -0,2 C 0,8 C 4,0 km/h (1 Bft) 98,38 %
20.01.2018 01:00 0,6 C 3,6 C 95 % 1011,7 hPa 0,2 l/m 1,7 km/h (1 Bft) S 0,00 h 0,000 mm 0,0 UV-I 0 W/m -0,0 C 0,6 C 3,7 km/h (1 Bft) 97,28 %
20.01.2018 02:00 0,5 C 3,6 C 97 % 1011,8 hPa 0,0 l/m 6,5 km/h (2 Bft) SW 0,00 h 0,000 mm 0,0 UV-I 0 W/m 0,0 C -0,6 C 10,0 km/h (2 Bft) 96,81 %
20.01.2018 03:00 1,3 C 3,3 C 96 % 1011,9 hPa 0,4 l/m 16,2 km/h (3 Bft) SW 0,00 h 0,000 mm 0,0 UV-I 0 W/m 0,6 C -6,0 C 23,6 km/h (4 Bft) 96,52 %
20.01.2018 04:00 1,7 C 3,3 C 94 % 1012,7 hPa 1,0 l/m 14,9 km/h (3 Bft) W-SW 0,00 h 0,000 mm 0,0 UV-I 0 W/m 0,8 C -4,8 C 22,9 km/h (4 Bft) 99,34 %
20.01.2018 05:00 1,3 C 3,3 C 93 % 1013,1 hPa 0,2 l/m 11,8 km/h (2 Bft) W-SW 0,00 h 0,000 mm 0,0 UV-I 0 W/m 0,4 C -3,1 C 18,5 km/h (3 Bft) 97,21 %
20.01.2018 06:00 0,9 C 3,3 C 95 % 1013,2 hPa 0,2 l/m 9,2 km/h (2 Bft) SW 0,00 h 0,000 mm 0,0 UV-I 0 W/m 0,1 C -1,8 C 14,3 km/h (3 Bft) 97,72 %
20.01.2018 07:00 0,9 C 3,3 C 93 % 1013,1 hPa 0,0 l/m 4,4 km/h (1 Bft) S 0,00 h 0,000 mm 0,0 UV-I 5 W/m -0,0 C 0,8 C 8,2 km/h (2 Bft) 96,23 %
20.01.2018 08:00 1,3 C 3,3 C 93 % 1012,8 hPa 0,0 l/m 10,0 km/h (2 Bft) S-SW 0,13 h 0,000 mm 0,0 UV-I 19 W/m 0,3 C -1,9 C 16,1 km/h (3 Bft) 98,48 %
20.01.2018 09:00 1,9 C 3,3 C 88 % 1012,4 hPa 0,2 l/m 10,7 km/h (2 Bft) S-SW 0,00 h 0,025 mm 0,0 UV-I 58 W/m 0,2 C -1,7 C 17,4 km/h (3 Bft) 97,92 %
20.01.2018 10:00 3,2 C 3,3 C 81 % 1011,7 hPa 0,0 l/m 12,3 km/h (3 Bft) S-SW 0,80 h 0,026 mm 0,4 UV-I 257 W/m 0,3 C -1,3 C 20,1 km/h (4 Bft) 98,74 %
20.01.2018 11:00 2,3 C 3,3 C 86 % 1011,6 hPa 0,4 l/m 14,9 km/h (3 Bft) W-SW 0,03 h 0,127 mm 0,0 UV-I 68 W/m 0,3 C -3,7 C 23,1 km/h (4 Bft) 96,20 %
20.01.2018 12:00 2,2 C 3,3 C 92 % 1011,0 hPa 0,2 l/m 13,4 km/h (3 Bft) SW 0,00 h 0,051 mm 0,0 UV-I 121 W/m 1,0 C -3,1 C 22,4 km/h (4 Bft) 97,33 %
20.01.2018 13:00 2,6 C 3,3 C 90 % 1010,1 hPa 0,0 l/m 14,9 km/h (3 Bft) SW 0,63 h 0,050 mm 0,5 UV-I 241 W/m 1,1 C -3,6 C 23,2 km/h (4 Bft) 97,82 %
20.01.2018 14:00 3,0 C 3,4 C 88 % 1009,1 hPa 0,0 l/m 9,0 km/h (2 Bft) SW 0,47 h 0,102 mm 0,0 UV-I 158 W/m 1,2 C 0,8 C 13,9 km/h (3 Bft) 99,02 %
20.01.2018 15:00 2,2 C 3,4 C 90 % 1008,5 hPa 0,0 l/m 11,2 km/h (2 Bft) SW 0,00 h 0,076 mm 0,0 UV-I 31 W/m 0,8 C -1,5 C 17,6 km/h (3 Bft) 97,87 %
20.01.2018 16:00 1,4 C 3,4 C 94 % 1007,4 hPa 0,0 l/m 4,1 km/h (1 Bft) S-SO 0,00 h 0,026 mm 0,0 UV-I 11 W/m 0,6 C 1,1 C 7,7 km/h (2 Bft) 96,98 %
20.01.2018 17:00 1,0 C 3,5 C 95 % 1006,0 hPa 0,0 l/m 7,9 km/h (2 Bft) O 0,00 h 0,000 mm 0,0 UV-I 0 W/m 0,3 C -1,2 C 11,9 km/h (2 Bft) 97,22 %
20.01.2018 18:00 0,8 C 3,3 C 95 % 1004,4 hPa 0,0 l/m 8,9 km/h (2 Bft) O 0,00 h 0,000 mm 0,0 UV-I 0 W/m -0,0 C -1,7 C 13,0 km/h (3 Bft) 99,08 %
20.01.2018 19:00 0,6 C 3,3 C 95 % 1002,5 hPa 0,2 l/m 13,2 km/h (3 Bft) O-NO 0,00 h 0,000 mm 0,0 UV-I 0 W/m -0,1 C -5,1 C 18,7 km/h (3 Bft) 97,56 %
20.01.2018 20:00 0,6 C 3,3 C 95 % 1001,2 hPa 0,0 l/m 11,9 km/h (2 Bft) O-NO 0,00 h 0,000 mm 0,0 UV-I 0 W/m -0,2 C -4,1 C 17,4 km/h (3 Bft) 97,09 %
20.01.2018 21:00 0,5 C 3,3 C 94 % 1000,0 hPa 0,0 l/m 10,8 km/h (2 Bft) O-NO 0,00 h 0,000 mm 0,0 UV-I 0 W/m -0,4 C -3,5 C 15,9 km/h (3 Bft) 96,79 %
20.01.2018 22:00 0,6 C 3,3 C 94 % 999,6 hPa 0,0 l/m 3,4 km/h (1 Bft) NO 0,00 h 0,000 mm 0,0 UV-I 0 W/m -0,3 C 0,2 C 5,9 km/h (2 Bft) 98,90 %
20.01.2018 23:00 0,4 C 3,3 C 95 % 999,3 hPa 0,0 l/m 2,4 km/h (1 Bft) N-NO 0,00 h 0,000 mm 0,0 UV-I 0 W/m -0,3 C 0,4 C 3,8 km/h (1 Bft) 97,96 %
21.01.2018 00:00 0,1 C 3,3 C 97 % 998,7 hPa 0,0 l/m 4,5 km/h (1 Bft) O-NO 0,00 h 0,000 mm 0,0 UV-I 0 W/m -0,4 C 0,1 C 6,5 km/h (2 Bft) 96,95 %
21.01.2018 01:00 0,0 C 3,3 C 97 % 998,6 hPa 0,0 l/m 1,7 km/h (1 Bft) O-NO 0,00 h 0,000 mm 0,0 UV-I 0 W/m -0,4 C 0,0 C 3,0 km/h (1 Bft) 97,07 %
21.01.2018 02:00 -0,0 C 3,3 C 97 % 999,2 hPa 0,0 l/m 0,0 km/h (0 Bft) N 0,00 h 0,000 mm 0,0 UV-I 0 W/m -0,5 C -0,0 C 0,0 km/h (0 Bft) 98,94 %
21.01.2018 03:00 -0,0 C 3,3 C 97 % 999,7 hPa 0,0 l/m 0,0 km/h (0 Bft) N 0,00 h 0,000 mm 0,0 UV-I 0 W/m -0,4 C -0,0 C 0,0 km/h (0 Bft) 98,42 %
21.01.2018 04:00 0,0 C 3,3 C 98 % 1000,9 hPa 0,0 l/m 0,0 km/h (0 Bft) N 0,00 h 0,000 mm 0,0 UV-I 0 W/m -0,3 C 0,0 C 0,0 km/h (0 Bft) 97,50 %
21.01.2018 05:00 0,2 C 3,3 C 98 % 1002,2 hPa 0,0 l/m 0,0 km/h (0 Bft) N 0,00 h 0,000 mm 0,0 UV-I 0 W/m -0,1 C 0,2 C 0,0 km/h (0 Bft) 97,10 %
21.01.2018 06:00 0,3 C 3,3 C 98 % 1003,5 hPa 0,0 l/m 0,0 km/h (0 Bft) N 0,00 h 0,000 mm 0,0 UV-I 0 W/m 0,0 C 0,3 C 0,1 km/h (0 Bft) 97,99 %
21.01.2018 07:00 0,3 C 3,3 C 98 % 1004,8 hPa 0,0 l/m 3,4 km/h (1 Bft) W 0,00 h 0,000 mm 0,0 UV-I 2 W/m 0,0 C 0,3 C 5,5 km/h (1 Bft) 98,10 %
21.01.2018 08:00 0,4 C 3,3 C 98 % 1005,7 hPa 0,0 l/m 4,9 km/h (1 Bft) W-SW 0,00 h 0,000 mm 0,0 UV-I 7 W/m 0,1 C -0,2 C 7,3 km/h (2 Bft) 97,30 %
21.01.2018 09:00 0,6 C 3,3 C 98 % 1006,9 hPa 0,0 l/m 9,5 km/h (2 Bft) W-SW 0,00 h 0,000 mm 0,0 UV-I 24 W/m 0,2 C -2,3 C 14,5 km/h (3 Bft) 96,87 %
21.01.2018 10:00 0,9 C 3,3 C 97 % 1008,1 hPa 0,0 l/m 11,5 km/h (2 Bft) W-SW 0,00 h 0,000 mm 0,0 UV-I 77 W/m 0,5 C -3,3 C 17,8 km/h (3 Bft) 98,05 %
21.01.2018 11:00 1,3 C 3,3 C 95 % 1009,2 hPa 0,0 l/m 16,3 km/h (3 Bft) W-SW 0,00 h 0,025 mm 0,0 UV-I 71 W/m 0,6 C -6,0 C 24,3 km/h (4 Bft) 98,45 %
21.01.2018 12:00 1,2 C 3,3 C 95 % 1010,0 hPa 0,6 l/m 19,2 km/h (3 Bft) W-SW 0,00 h 0,026 mm 0,0 UV-I 111 W/m 0,4 C -7,6 C 28,3 km/h (4 Bft) 97,29 %
21.01.2018 13:00 1,3 C 3,3 C 94 % 1010,9 hPa 1,4 l/m 20,7 km/h (4 Bft) W-SW 0,00 h 0,051 mm 0,0 UV-I 129 W/m 0,4 C -8,2 C 33,2 km/h (5 Bft) 96,77 %
21.01.2018 14:00 0,9 C 3,3 C 95 % 1012,2 hPa 1,4 l/m 17,8 km/h (3 Bft) W-SW 0,00 h 0,050 mm 0,0 UV-I 67 W/m 0,2 C -7,4 C 27,3 km/h (4 Bft) 97,51 %
21.01.2018 15:00 0,5 C 3,3 C 96 % 1013,8 hPa 0,4 l/m 13,3 km/h (3 Bft) W 0,00 h 0,026 mm 0,0 UV-I 21 W/m 0,0 C -5,1 C 20,6 km/h (4 Bft) 99,12 %
21.01.2018 16:00 0,5 C 3,3 C 97 % 1015,4 hPa 0,6 l/m 12,0 km/h (2 Bft) W 0,00 h 0,000 mm 0,0 UV-I 10 W/m 0,1 C -4,3 C 19,8 km/h (3 Bft) 97,79 %
21.01.2018 17:00 0,5 C 3,3 C 97 % 1016,9 hPa 0,2 l/m 11,0 km/h (2 Bft) W 0,00 h 0,000 mm 0,0 UV-I 0 W/m 0,1 C -3,6 C 18,7 km/h (3 Bft) 96,32 %
21.01.2018 18:00 0,6 C 3,3 C 96 % 1017,7 hPa 0,2 l/m 10,7 km/h (2 Bft) W 0,00 h 0,000 mm 0,0 UV-I 0 W/m 0,0 C -3,2 C 17,4 km/h (3 Bft) 97,04 %
21.01.2018 19:00 0,6 C 3,3 C 96 % 1018,4 hPa 0,2 l/m 8,6 km/h (2 Bft) W 0,00 h 0,000 mm 0,0 UV-I 0 W/m -0,0 C -1,6 C 14,1 km/h (3 Bft) 98,87 %
21.01.2018 20:00 0,5 C 3,3 C 96 % 1018,6 hPa 0,0 l/m 6,5 km/h (2 Bft) W 0,00 h 0,000 mm 0,0 UV-I 0 W/m -0,0 C -0,3 C 11,3 km/h (2 Bft) 97,65 %
21.01.2018 21:00 0,4 C 3,3 C 96 % 1019,0 hPa 0,2 l/m 7,1 km/h (2 Bft) W-SW 0,00 h 0,000 mm 0,0 UV-I 0 W/m -0,2 C -1,0 C 12,0 km/h (2 Bft) 98,59 %
21.01.2018 22:00 0,3 C 3,3 C 94 % 1019,3 hPa 0,0 l/m 7,9 km/h (2 Bft) W-SW 0,00 h 0,000 mm 0,0 UV-I 0 W/m -0,5 C -1,7 C 12,4 km/h (3 Bft) 96,85 %
21.01.2018 23:00 0,0 C 3,3 C 94 % 1018,9 hPa 0,0 l/m 6,6 km/h (2 Bft) W-SW 0,00 h 0,000 mm 0,0 UV-I 0 W/m -0,9 C -0,8 C 10,0 km/h (2 Bft) 99,31 %
Min-Datum _ 15.01.18 15.01.18 18.01.18 17.01.18 - 16.01.18 - - - - - 15.01.18 17.01.18 16.01.18 17.01.18
_ Min-Zeit 21:42 00:00 17:43 06:28 - 01:32 - - - - - 10:26 16:58 01:32 04:05
Minimum _ -2,5 C 3,3 C 64 % 996,6 hPa - 0,0 km/h (0 Bft) - - - - - -3,5 C -14,9 C 0,0 km/h (0 Bft) 65,79 %
Max-Datum _ 18.01.18 15.01.18 21.01.18 15.01.18 16.01.18 17.01.18 - 15.01.18 19.01.18 19.01.18 20.01.18 18.01.18 18.01.18 18.01.18 15.01.18
_ Max-Zeit 18:19 06:24 03:36 00:32 16:44 23:22 - 08:02 13:00 12:34 13:18 19:51 14:02 21:02 00:56
Maximum _ 10,2 C 21,7 C 98 % 1023,5 hPa 5,0 l/m 40,0 km/h
W-SW (6 Bft)
- 0,03 h 0,127 mm 0,6 UV-I 493 W/m 5,5 C 6,0 C 75,6 km/h
W-SW (9 Bft)
100,00 %
Durchschnitt _ 1,3 C 3,6 C 91 % 1008,1 hPa #56,2 l/m 12,1 km/h (2 Bft) W-SW #6:34 h #3,403 mm 0,4 UV-I 71 W/m -0,1 C -3,1 C 18,8 km/h (3 Bft) 97,80 %